DELTA 1 DEB, 7037

Orbit data source: Space-Track

DELTA 1 DEB, 7037 is space debris in LEO originally from a launch on Tue, 06 Nov 1973 UTC launched from the Air Force Western Test Range (AFWTR). Debris objects in space refer to the collection of defunct objects orbiting the Earth. Examples of debris include non-operational satellites, rocket bodies, and fragments generated from explosions, collisions, or faulty payload assembly.

Loading next visibility...
Identifier
7037, 1973-086AD
Orbit
LEO
Last TLE update
2 days ago
Origin
Manufacturer
Unknown
Mission
Spacecraft
Bus & Motor
Unknown
Mass
Unknown
Launch date (UTC)
1973-11-06 (52 years ago)
Launch vehicle
Unknown
Launch site
Air Force Western Test Range (AFWTR)
Object type
Payload
Rocket body
Debris
Shape & HBR
Unknown
Radar Cross Section
Medium (>0.1 m² and <1 m²)

Expand to show TLE details & history

TLE from 2 days ago
0 DELTA 1 DEB
1 07037U 73086AD  25187.17409163 -.00000007  00000-0  38733-3 0  9990
2 07037 102.0495 261.9017 0324908  44.4795 344.8807 11.86604106236968
Epoch: 2025-07-06T04:10Z
TLE epoch observation values (Epoch: 2025-07-06T04:10:41.516Z)
Latitude
27.71162°
Longitude
-91.57877°
Altitude
1,490.322 km
Speed
7.232 km/s
True Right ascension
17h 01m 58s
True Declination
27° 35' 00"
Sunlit
Object was in daylight at epoch
Visualization orbit readout
Latitude
58.7581°
Longitude
-104.15482°
Altitude
1,501.061 km
Speed
7.228 km/s
Apparent Right ascension
18h 46m 37s
Apparent Declination
19° 43' 39"
Sunlit
Object is in daylight
Visualization observer readout
Local Sidereal Time
08:52:45
Azimuth
32.47° NE
Elevation
-23.5°
Doppler factor
1
Orbital elements
Apogee altitude
2,002.778 km
Perigee altitude
1,475.311 km
Semi-major axis
8,117.181 km
Eccentricity
0.03249
Inclination
102.0495°
RAAN
261.9017°
Arg. of periapsis
44.4795°
True anomaly
Unknown
Mean anomaly
344.8807°
Eccentric anomaly
Unknown
Mean motion
2.9678 °/min
Orbital period
121.3 mins
BSTAR
0.00038733
Loading maneuver chart data...
Loading SW <> Apogee altitude chart data...
Loading historical data...
Loading historical data...
Loading historical data...
Loading historical data...
Loading historical data...
Loading historical data...
Loading historical data...

DELTA 1 DEB Visibility forecast

Observer location: undefined°, undefined°

Span
Click to sort rows by Start time (UTC) header in descending order
Start Az.
Max El. time (UTC)
Max El. Az.
Max El.
End time (UTC)
End Az.
10 mins2025-07-08 02:45:57.401Z86.278° E2025-07-08 02:49:57.401Z54.286° ENE18.791°2025-07-08 02:55:57.401Z7.94° NNE
15 mins2025-07-08 04:40:57.401Z159.714° S2025-07-08 04:47:57.401Z156.884° SSE44.862°2025-07-08 04:55:57.401Z342.45° N
8 mins2025-07-08 06:44:57.401Z242.356° WSW2025-07-08 06:47:57.401Z265.614° W15.266°2025-07-08 06:52:57.401Z303.65° NW
17 mins2025-07-08 17:21:57.401Z30.171° NE2025-07-08 17:28:57.401Z96.541° ESE39.98°2025-07-08 17:38:57.401Z180.22° SSW
15 mins2025-07-08 19:20:57.401Z359.046° N2025-07-08 19:27:57.401Z299.173° NW31.744°2025-07-08 19:35:57.401Z240.544° WSW
|